Location: Chandolas
(44.4033°N, 4.2533°E)
Time: 23:32:58
(UTC+00:00)

Cosmos 2123 Rocket - Pass Details

Date: 15 November 2019
Orbit: 961 x 992 km, 82.9° (Epoch: 08 December)

Event Time Altitude Azimuth Distance (km) Brightness Sun altitude
Rises 04:10:46 0° 347° (NNW) 3,656 6.9 -26.3°
Enters shadow 04:11:23 - 346° (NNW) 3,425 6.7 -26.2°
Exits shadow 04:20:16 49° 236° (WSW) 1,226 4.1 -24.6°
Drops below altitude 10° 04:25:17 10° 193° (SSW) 2,703 6.2 -23.7°
Sets 04:27:50 0° 189° (S) 3,650 7.0 -23.3°
